Theta_e
314 314 314 314 313 312 312 310 310 309 309 309 309 309 309 309 310 308 309 311 312 311 311 311 310 310 310 311 310 310 313 312 312 311 310 310 310 311 311 309 307 308 311 308 307 309 308 307 307 307 307 308 308 308 308 310 311 310 309 309 307 305 306 307 306 306 303 302 303 304 305 307 310 307 306 307 308 308 308 308 310 311 312 313 315
314 313 314 313 311 311 311 311 313 307 308 308 307 308 309 310 309 309 309 310 311 312 310 311 311 310 309 310 310 310 309 309 309 311 310 310 310 310 310 308 308 308 310 309 309 307 306 306 306 306 307 306 309 309 310 312 310 309 309 307 308 306 305 307 307 306 302 300 299 300 302 305 308 306 305 306 308 307 307 308 310 310 312 316 318
311 312 313 313 313 312 310 309 308 308 307 307 307 308 309 309 309 309 309 309 310 314 312 310 312 311 311 310 309 309 311 311 309 311 311 308 308 309 310 308 307 307 307 309 309 307 306 306 306 306 306 309 307 308 307 308 309 309 308 307 306 307 307 308 307 306 302 303 302 300 297 298 303 304 305 306 308 306 307 308 310 310 312 316 316
310 311 311 312 312 311 310 308 308 308 308 306 307 308 309 312 309 308 309 309 310 314 317 313 314 312 312 311 311 310 310 313 309 309 308 308 307 308 308 308 308 307 307 307 309 307 307 306 306 306 306 308 307 307 307 308 308 308 308 309 308 304 305 306 308 307 305 303 297 297 297 298 296 299 301 305 307 305 307 307 309 309 311 315 316
310 310 311 311 311 310 309 310 308 307 307 307 307 308 310 309 309 308 309 309 310 314 312 313 312 309 309 310 309 308 308 306 306 305 306 309 308 306 306 307 308 307 307 306 309 308 308 307 306 307 307 307 309 307 307 308 308 309 309 309 307 306 305 305 307 308 306 307 302 299 297 297 296 300 302 303 306 304 306 308 309 310 311 313 313
311 311 311 311 310 309 309 309 308 307 307 308 307 308 308 309 310 309 309 309 310 311 312 313 310 307 306 305 303 303 303 303 304 304 303 303 304 306 307 307 307 307 307 307 307 309 308 307 307 307 307 307 310 308 308 308 308 308 309 308 308 309 307 305 305 309 307 306 306 306 303 298 298 301 302 297 304 305 306 308 308 308 308 308 309
311 311 311 310 309 307 307 307 308 308 308 309 308 308 309 309 309 310 310 310 311 310 310 313 308 307 306 306 305 303 302 303 304 306 306 304 305 304 305 306 306 306 307 306 306 307 308 307 307 307 307 308 311 308 308 308 308 308 310 309 309 311 309 306 306 306 306 305 305 306 305 306 306 302 300 302 297 301 304 306 306 307 307 306 306
311 311 311 310 308 307 307 307 307 309 309 308 308 308 308 308 309 309 310 311 309 311 309 311 308 306 305 305 308 304 303 303 305 306 306 310 303 304 304 304 305 306 306 306 306 306 309 308 307 307 307 309 311 307 308 308 308 309 310 310 311 311 311 309 307 307 303 302 306 304 304 305 306 307 307 303 300 296 299 304 306 305 305 305 306
312 311 310 309 308 308 308 307 308 309 309 308 308 308 308 308 310 308 309 308 308 310 310 308 311 307 305 304 303 306 308 307 306 306 305 305 302 303 303 304 304 305 305 306 305 306 309 308 307 307 307 308 310 308 308 308 307 307 308 310 310 310 311 312 310 308 306 304 304 302 302 303 305 306 304 304 301 297 297 299 300 304 304 304 304
313 312 311 309 309 308 309 309 309 308 309 313 309 308 308 308 310 309 308 308 308 307 307 307 307 308 305 304 303 303 305 304 303 303 303 303 302 302 302 303 303 303 304 305 305 306 306 308 306 306 306 308 310 307 308 307 306 306 308 310 310 310 311 311 311 310 308 307 305 303 302 303 304 305 305 303 301 301 297 298 300 299 298 301 304
312 312 311 310 310 310 309 308 308 308 307 307 307 307 307 307 307 307 306 307 308 307 307 306 306 306 305 304 304 304 304 303 302 302 302 302 301 301 301 302 302 302 303 304 305 306 306 308 306 306 307 308 307 306 307 306 306 306 308 310 310 310 309 309 310 310 310 308 307 305 304 303 303 303 302 303 301 299 298 298 299 300 299 299 302
312 311 309 309 309 308 308 308 306 306 306 306 306 307 308 306 306 306 306 306 307 307 306 306 306 305 305 304 305 305 304 304 302 301 301 301 301 301 301 301 302 302 302 303 304 305 306 305 306 304 305 305 305 305 307 307 306 306 307 309 309 309 309 309 308 308 309 309 309 308 307 307 306 304 305 304 302 301 299 298 298 300 298 299 302
311 309 309 309 308 308 309 308 306 304 305 305 306 306 306 306 306 305 305 305 306 306 305 305 305 305 305 305 305 308 305 304 303 302 302 301 301 301 301 300 301 301 302 303 304 304 305 304 303 303 303 304 305 305 306 307 306 306 307 308 309 308 308 307 307 307 308 308 308 309 307 306 305 306 306 304 303 302 300 297 299 300 296 297 300
311 309 309 309 309 310 309 308 307 305 305 306 307 307 306 306 305 305 304 305 306 305 305 305 305 305 304 304 305 305 304 304 304 303 303 302 302 301 300 300 301 301 301 303 304 304 303 303 303 303 303 303 304 304 305 306 306 306 306 307 308 309 308 306 306 307 307 308 308 307 307 306 306 307 307 306 304 301 299 298 297 297 298 297 299
310 310 310 310 310 310 309 309 307 305 305 305 304 305 305 304 305 305 304 305 306 305 304 304 304 304 304 304 304 306 305 303 304 307 303 302 302 302 301 301 301 301 302 304 304 302 302 302 303 302 302 302 303 303 304 304 305 306 306 307 308 309 308 306 304 305 305 306 306 306 306 306 306 306 306 305 306 304 302 301 299 295 295 297 297
311 310 310 311 311 310 310 308 306 306 305 304 304 304 305 304 304 304 304 304 307 307 304 304 304 304 303 303 304 307 308 305 305 305 303 303 302 302 302 302 302 302 303 303 302 302 301 301 301 301 302 302 302 302 302 303 304 305 305 306 306 309 308 306 304 304 304 305 305 306 305 305 306 306 306 306 305 305 304 303 301 298 294 292 296
311 311 311 311 311 311 309 306 305 305 304 305 304 304 305 304 304 304 304 305 306 306 304 304 304 303 303 303 303 303 303 302 302 302 303 303 303 302 302 302 303 303 304 304 301 301 301 302 300 301 301 301 301 301 302 302 304 304 304 305 305 306 307 307 308 304 303 304 304 304 304 304 305 306 305 305 305 305 304 303 302 300 299 295 294
312 312 312 312 312 311 308 307 306 305 304 304 304 304 304 304 304 303 304 304 304 305 305 304 304 303 303 303 303 303 303 303 303 303 303 303 302 302 302 302 302 304 304 304 301 300 300 302 300 300 300 300 300 300 301 302 303 304 304 305 305 306 305 306 308 308 305 302 303 303 303 303 304 304 305 305 304 304 303 303 303 302 302 298 297
312 312 312 311 311 310 308 306 305 305 305 304 304 304 304 303 304 303 304 304 305 306 305 305 304 304 304 303 303 303 303 303 304 304 303 303 303 302 302 301 302 304 303 301 299 299 299 299 299 299 299 299 300 300 301 301 302 303 305 304 305 305 305 305 306 307 308 306 303 301 302 302 303 303 303 304 305 304 303 304 303 304 304 302 300
312 312 312 312 311 310 308 305 305 304 304 304 304 304 303 305 307 305 305 304 305 305 305 304 304 304 303 303 303 303 304 304 303 302 302 302 302 303 302 301 302 304 301 300 299 299 299 298 298 299 298 298 298 299 299 300 302 303 304 304 304 305 304 304 305 306 307 307 307 305 303 301 302 303 302 303 304 304 305 303 303 302 302 303 303
312 312 312 312 311 310 308 307 306 306 307 306 305 304 304 304 305 305 304 304 304 304 304 303 303 303 303 301 301 302 302 303 302 303 302 301 302 304 302 301 302 302 301 300 299 298 298 298 297 298 297 297 297 298 298 299 300 302 304 303 303 304 304 304 305 304 306 306 307 307 307 307 304 302 302 302 303 303 304 303 304 302 301 302 303
312 312 312 311 311 309 308 308 307 307 306 304 304 304 304 304 305 304 304 305 304 304 304 304 303 302 301 301 301 301 302 302 302 301 302 301 301 301 302 301 300 301 301 299 299 298 298 297 297 296 296 296 296 297 297 298 299 300 302 304 303 303 303 303 303 303 304 305 305 305 305 306 307 305 305 302 301 301 301 302 301 302 301 301 303
313 312 312 312 311 309 309 308 307 306 305 305 304 304 304 304 304 304 304 304 305 305 304 303 302 301 301 301 301 301 301 301 301 301 301 301 301 301 303 300 300 300 302 300 298 298 297 297 296 295 295 295 295 296 297 297 298 300 301 302 303 302 302 302 302 302 302 303 303 303 304 305 307 306 306 306 306 304 303 302 302 302 301 301 302
313 312 312 312 310 310 309 308 307 306 304 304 303 302 302 303 303 303 303 304 304 304 304 303 301 301 300 300 300 300 301 300 300 300 300 300 300 301 303 300 300 300 300 300 299 297 297 296 295 295 294 294 295 295 296 297 298 299 301 302 302 302 302 301 302 302 301 301 301 301 302 303 304 303 304 305 306 307 308 307 306 306 304 303 303
312 312 311 311 310 309 309 308 307 305 303 301 301 301 302 302 303 303 303 303 304 304 302 302 301 300 299 300 299 300 300 300 300 300 300 300 300 300 302 301 300 300 300 299 298 298 295 295 295 294 294 294 294 294 295 296 298 300 301 301 301 302 302 301 301 301 303 300 300 300 301 301 301 301 302 302 303 303 305 304 302 302 302 302 302
312 311 311 310 310 310 309 307 305 303 301 301 302 302 302 302 303 304 303 303 303 302 302 301 300 300 299 299 299 299 300 300 301 300 300 300 300 300 300 301 301 299 299 298 297 296 296 294 294 294 293 293 294 294 294 295 297 299 300 301 301 301 302 301 301 301 301 301 300 300 300 301 301 300 300 301 301 301 302 302 301 301 301 301 300
312 311 310 310 309 308 308 305 303 302 302 302 302 302 302 302 302 302 302 303 302 301 301 300 299 299 299 298 298 299 299 300 300 300 300 300 300 299 300 300 301 300 299 297 296 295 295 293 293 293 293 293 294 294 294 295 296 298 298 299 299 299 299 300 300 301 301 301 301 301 301 301 301 301 300 301 302 302 302 302 302 302 302 300 299
312 310 310 309 309 307 306 303 302 302 302 302 303 303 302 302 302 302 303 302 302 301 300 299 299 298 297 298 298 299 299 300 300 300 300 300 300 299 299 300 301 300 299 297 295 294 294 293 293 293 293 294 293 294 295 295 296 297 297 297 297 298 298 298 298 299 300 299 299 299 301 301 302 302 302 302 303 303 303 302 302 303 302 301 300
311 310 310 309 308 306 304 303 302 301 301 302 302 302 302 302 303 303 303 302 302 300 299 299 298 298 297 297 299 299 299 300 300 300 300 299 299 299 299 299 299 300 301 299 296 294 293 292 292 292 292 293 293 294 295 296 296 296 296 296 295 295 295 295 295 296 297 297 297 297 298 302 305 306 306 305 306 308 304 302 303 303 304 302 301
311 310 310 310 308 306 304 303 301 301 301 302 302 302 302 302 302 302 302 301 301 299 299 298 298 298 297 298 299 299 298 298 299 299 299 299 299 299 299 298 298 298 299 300 297 294 292 291 291 291 292 293 293 295 299 299 301 298 295 295 295 294 294 293 293 293 294 295 296 296 298 303 304 305 305 303 304 306 308 307 304 303 302 302 301
311 311 310 310 308 306 305 303 302 301 301 302 302 302 302 302 302 302 302 301 300 299 298 297 297 296 297 297 298 297 298 298 297 298 298 299 299 298 298 297 297 297 297 298 297 293 292 291 290 290 291 292 293 295 297 296 297 299 297 295 295 294 294 293 293 292 293 294 295 296 296 299 301 302 302 302 303 304 304 303 304 306 306 303 301
312 311 311 310 307 306 305 304 302 301 302 302 302 302 302 302 302 302 302 301 300 298 297 297 297 297 297 297 297 298 298 297 298 297 298 298 298 298 297 296 296 296 296 296 295 294 292 291 290 290 290 292 292 296 295 296 296 297 299 296 295 295 295 294 293 293 292 293 294 295 296 297 298 301 300 299 303 305 304 303 303 303 303 301 300
313 312 312 311 308 307 306 305 302 301 301 302 303 302 302 302 302 301 302 300 299 298 296 296 296 296 296 296 297 297 297 297 297 297 298 298 297 297 296 296 295 295 294 295 294 294 291 290 290 289 290 291 291 295 294 295 295 296 296 298 295 295 295 294 294 294 293 292 293 294 295 296 296 301 299 297 299 301 306 306 306 305 305 304 297
314 314 313 312 309 307 307 305 302 302 302 303 304 303 303 303 303 302 300 299 298 296 297 297 296 296 296 296 297 297 296 296 296 296 297 297 297 296 295 296 295 294 293 293 293 293 292 290 290 289 289 290 291 294 293 294 295 295 295 297 296 295 294 294 294 294 294 294 293 293 293 294 295 296 296 296 298 299 300 301 301 301 302 304 303
314 314 314 311 308 307 306 304 302 302 302 303 303 304 303 302 301 300 299 298 297 296 296 296 295 295 296 296 296 296 296 296 295 295 296 296 296 295 295 295 295 293 292 292 292 292 292 291 289 289 290 289 291 293 292 293 294 295 295 297 295 295 294 294 294 293 294 295 294 293 293 293 294 294 296 297 297 297 299 300 300 300 301 301 302
315 315 314 310 309 307 306 303 304 303 303 304 303 303 302 301 301 300 299 298 297 296 296 295 295 295 296 296 296 296 295 295 295 294 295 295 294 295 295 296 295 293 293 292 292 292 291 290 289 289 288 288 290 292 292 292 293 293 295 296 294 294 293 293 293 293 293 294 296 294 293 293 293 294 296 295 298 299 298 298 299 299 300 301 301
318 317 316 312 310 309 306 305 303 303 303 303 303 303 302 301 300 299 298 297 297 296 296 296 296 295 296 296 296 295 295 294 294 294 293 294 294 293 294 294 293 293 292 291 290 291 290 289 290 289 288 288 289 292 291 292 292 293 294 293 293 293 292 292 291 291 292 293 297 296 293 293 293 294 295 293 295 300 297 297 297 298 299 299 299
319 318 314 311 310 308 306 303 302 302 303 303 303 303 302 301 299 298 297 296 296 296 296 296 295 296 296 296 296 296 295 295 292 292 292 292 293 293 293 294 293 292 292 291 290 289 289 290 290 289 290 287 288 292 291 291 291 292 294 290 291 291 290 291 290 290 291 291 296 301 298 293 292 293 293 293 295 298 296 295 296 296 297 296 297
319 316 312 310 309 307 305 303 302 302 303 303 303 302 301 300 299 297 297 296 296 296 296 296 296 295 296 296 296 296 295 294 294 292 292 292 293 294 294 292 292 292 293 292 292 288 287 288 289 290 295 288 287 291 292 291 291 291 292 289 290 290 289 289 289 289 289 290 291 296 298 295 294 293 292 292 293 297 294 294 295 295 295 295 295
319 317 313 311 310 306 303 302 302 302 303 303 303 302 302 300 298 297 296 296 296 297 295 296 296 296 296 296 296 297 295 294 293 292 292 292 293 291 291 291 290 292 292 291 290 289 288 288 287 287 289 289 287 287 292 290 291 291 292 291 289 289 289 288 288 290 288 288 290 291 294 292 291 291 291 291 292 293 294 293 294 294 294 294 296
318 314 311 310 307 305 303 302 302 303 303 303 303 302 301 300 298 296 296 297 297 296 296 296 296 296 296 296 295 295 295 294 293 293 294 294 291 291 290 291 290 290 288 288 288 287 286 284 285 285 285 286 290 288 290 290 290 291 291 291 287 289 288 288 287 288 286 287 288 289 290 293 291 291 291 291 291 292 294 294 293 292 293 295 297
315 312 310 308 306 303 302 302 303 303 303 303 302 301 300 298 297 296 296 297 297 296 296 296 295 295 295 295 294 294 296 297 295 295 292 291 291 290 290 290 288 288 287 286 285 285 283 282 282 283 285 283 287 292 288 290 290 290 290 291 289 289 290 289 288 287 286 286 287 288 290 292 291 290 290 291 291 291 292 293 292 292 292 293 298
310 309 309 307 304 303 302 302 303 303 303 303 302 301 299 298 296 296 297 297 297 296 296 296 295 295 296 295 295 295 296 298 296 294 292 291 292 291 291 291 289 287 286 284 283 282 281 281 281 281 281 282 283 286 290 290 290 289 290 290 291 290 291 291 287 286 285 286 286 287 291 293 290 290 290 290 290 291 292 290 291 291 292 293 297
312 310 308 306 304 302 302 302 303 303 303 303 302 300 299 297 296 296 297 297 296 296 296 296 296 295 294 295 296 296 295 295 296 294 293 291 290 290 291 291 288 287 285 284 282 282 280 280 280 280 281 281 281 281 286 290 290 289 289 290 290 291 291 291 290 286 286 286 286 287 290 290 290 290 290 290 290 290 290 290 290 291 292 294 294
309 308 307 305 303 301 301 301 302 302 302 302 301 300 299 296 295 297 297 296 296 296 296 295 294 294 294 295 295 294 294 293 293 293 293 292 290 290 289 287 288 286 285 284 283 283 281 281 280 281 279 280 280 280 281 287 290 290 289 289 290 291 291 290 289 289 289 288 289 289 289 289 289 289 289 289 290 290 289 289 290 291 295 291 291
308 306 305 304 303 302 301 300 300 301 301 302 300 300 298 296 296 298 297 296 296 296 295 294 294 294 294 294 292 290 290 292 292 292 292 290 291 290 289 287 286 286 285 285 284 283 281 281 279 279 280 280 281 279 280 282 288 289 289 289 290 291 293 293 293 289 290 290 289 289 289 289 289 289 288 287 288 288 289 289 290 291 289 289 290
307 306 304 303 302 301 300 300 300 300 300 300 299 299 298 297 297 297 296 297 296 296 296 294 293 293 292 292 289 289 288 289 288 288 288 289 288 288 289 288 286 285 286 286 286 285 283 281 280 279 280 280 280 280 280 281 282 283 284 285 286 288 292 290 289 288 289 288 289 289 287 288 288 288 288 288 288 288 287 287 286 287 287 288 289
307 305 305 303 302 301 301 300 300 300 300 300 299 298 298 298 297 297 296 296 296 295 294 293 293 293 292 291 291 295 290 286 285 286 285 284 285 286 286 286 285 284 284 284 285 284 282 281 279 279 279 280 280 280 281 281 282 284 284 283 285 286 285 284 284 284 285 288 286 288 286 286 285 284 284 283 284 284 285 285 285 285 286 288 291
305 305 304 304 302 302 301 301 301 300 300 300 298 297 298 297 297 297 296 296 295 295 294 293 292 292 292 293 291 289 286 285 284 284 284 284 282 284 285 284 283 282 283 284 283 283 284 281 280 280 280 281 281 281 282 287 285 289 284 286 285 284 284 285 289 289 287 285 284 283 283 283 282 283 282 282 282 282 283 284 285 285 285 285 286
307 306 305 304 304 302 302 301 301 301 300 299 298 297 298 297 297 297 296 296 296 294 293 292 292 292 291 289 287 285 286 285 284 283 282 283 287 288 286 283 284 290 289 288 287 282 282 281 281 281 282 280 279 281 287 289 289 290 290 290 290 289 289 288 289 288 287 282 282 281 281 281 281 281 281 281 281 281 282 282 283 285 284 284 285
306 305 304 304 303 304 303 302 301 301 301 299 298 297 297 297 297 297 296 296 295 294 293 292 293 292 291 289 286 284 284 283 282 282 282 282 280 283 287 288 289 289 288 288 287 286 286 286 285 279 284 287 287 287 289 289 290 290 290 289 289 289 289 288 288 285 282 281 281 280 280 280 280 280 280 280 280 281 281 281 282 282 283 284 284
Wind_Speed
4 4 4 4 4 3 3 3 4 4 4 4 5 5 5 5 5 7 6 5 5 5 5 4 5 6 4 4 4 4 5 5 6 5 6 6 6 5 5 6 6 7 6 5 5 6 6 6 7 8 8 7 7 7 7 9 9 8 7 7 9 10 8 8 8 7 6 6 5 4 6 6 2 5 7 7 8 8 8 9 9 8 7 5 5
4 4 3 3 4 4 3 3 4 5 4 5 5 5 5 5 6 6 5 6 6 4 5 4 3 2 1 3 2 5 6 6 6 6 6 6 6 5 5 6 7 6 6 5 4 6 7 7 7 8 8 8 7 7 8 9 10 9 8 6 5 6 6 6 8 9 5 8 9 9 5 5 2 5 7 7 7 8 8 10 9 9 9 7 7
4 3 3 3 3 3 3 3 2 4 4 4 4 5 6 6 5 5 5 5 6 5 5 4 4 4 4 3 4 4 5 5 5 5 5 6 6 5 5 6 7 6 6 5 5 6 7 7 8 7 8 7 7 8 7 9 9 10 10 8 8 4 5 4 6 6 6 7 6 3 6 7 3 5 7 7 8 8 9 11 11 11 11 7 8
6 5 4 3 2 3 2 2 2 4 4 4 4 5 5 5 5 5 5 5 6 6 5 5 5 6 5 5 5 5 4 4 5 5 5 5 6 6 6 6 6 6 6 6 6 7 7 8 7 7 8 8 7 7 9 10 10 10 10 10 9 8 7 6 6 6 5 6 6 5 3 4 5 9 10 7 6 8 11 13 12 12 9 10 7
7 5 4 3 3 3 3 2 2 4 4 4 4 4 5 5 4 5 5 5 6 6 6 5 6 7 6 7 6 5 5 5 4 5 6 5 6 6 7 6 6 6 6 6 7 7 7 7 7 7 7 8 6 8 8 10 11 11 12 10 10 7 8 6 4 6 6 5 4 3 2 3 4 5 8 4 6 9 13 15 16 15 9 12 10
9 7 7 5 4 3 2 2 4 3 4 3 4 4 5 5 4 5 5 6 6 6 6 5 5 5 5 6 6 5 6 5 6 6 6 6 6 5 7 7 7 6 6 7 8 7 8 8 7 7 7 7 8 8 8 10 11 12 11 10 10 9 6 6 4 6 5 3 3 3 1 3 5 6 5 4 5 8 12 14 15 15 17 16 14
5 5 5 5 4 4 3 4 4 4 4 3 4 5 6 5 4 4 5 5 5 6 7 5 6 5 5 5 5 6 6 5 3 3 4 5 5 7 6 6 6 6 7 7 7 8 7 8 8 7 7 7 8 8 10 11 10 10 10 11 10 9 7 6 6 5 3 2 4 3 4 4 5 4 4 3 5 7 9 10 13 17 18 18 17
9 8 6 5 5 6 6 4 4 5 5 4 5 4 5 5 5 4 4 5 5 5 7 6 5 5 6 5 5 5 5 5 5 4 4 4 7 7 6 7 7 6 7 8 8 8 7 7 7 7 8 9 9 9 9 10 10 11 12 11 11 9 8 8 6 4 5 5 5 5 6 5 5 3 2 3 1 7 11 10 12 15 17 16 16
11 9 8 7 7 5 5 4 4 5 5 5 5 4 4 5 5 4 5 5 6 6 6 7 6 5 5 5 5 4 4 5 5 5 5 5 6 7 7 7 7 8 8 8 9 8 8 6 7 8 9 9 9 9 10 10 11 12 13 12 12 10 9 8 6 7 4 5 6 4 4 5 5 5 7 7 5 6 9 11 10 9 15 14 13
7 8 8 7 6 6 5 4 4 5 5 5 4 4 5 4 4 5 4 4 5 6 6 6 6 5 5 5 4 5 5 5 5 5 5 5 5 6 6 7 7 8 8 8 8 8 7 7 8 9 9 9 9 9 10 11 10 10 11 11 12 12 10 9 8 5 3 2 2 3 4 5 4 4 5 5 8 10 9 10 11 12 15 11 12
7 7 6 6 5 6 5 6 6 6 5 5 5 5 4 4 4 5 4 4 4 5 5 5 5 4 4 4 4 4 4 4 5 5 5 5 6 7 6 7 7 7 7 8 8 7 7 8 8 8 9 8 9 8 9 10 9 9 9 11 13 12 10 11 11 10 5 4 4 2 3 3 2 5 5 5 5 6 8 9 10 11 11 13 12
8 8 8 7 6 4 4 5 7 6 5 6 5 5 5 4 4 5 4 4 4 5 5 5 5 5 4 4 5 5 4 4 4 5 5 5 5 6 6 7 7 7 6 7 8 8 8 8 8 9 9 9 9 8 9 9 9 8 9 9 10 11 11 10 10 11 11 7 8 6 6 6 7 6 5 5 6 6 7 8 7 6 10 10 6
10 9 9 8 8 7 6 6 6 6 6 5 5 5 5 5 5 5 4 4 4 4 5 5 5 5 4 5 5 5 5 4 4 5 5 5 5 6 7 7 7 8 8 8 9 10 8 9 9 9 8 8 8 9 9 10 9 8 9 10 10 11 10 10 10 11 12 11 9 9 8 8 7 6 6 6 6 6 7 9 7 6 8 9 7
10 10 9 8 8 7 7 7 6 6 6 6 5 5 4 4 4 5 4 4 4 4 5 6 6 5 4 5 5 5 5 4 4 4 5 4 5 5 6 6 7 7 7 8 8 8 7 7 7 7 8 8 9 9 10 10 9 8 8 9 10 9 10 11 11 12 12 12 10 9 9 8 7 7 6 6 6 6 7 7 6 6 7 7 3
9 10 10 9 8 8 7 6 6 6 6 6 5 5 5 4 4 4 4 4 5 4 4 6 6 5 5 5 5 4 5 5 5 4 4 4 5 5 6 7 7 7 7 6 7 7 7 7 8 8 9 9 9 9 10 10 10 8 8 9 9 9 9 9 10 12 12 13 12 9 8 8 7 7 7 7 6 6 4 2 3 9 8 6 5
9 9 8 8 8 7 6 6 7 6 6 5 5 5 5 4 3 3 4 4 5 5 4 5 5 5 5 5 5 5 4 4 5 5 5 4 5 5 7 7 6 6 6 6 7 7 7 8 8 9 9 9 9 9 10 9 10 9 9 9 10 8 9 10 9 11 13 12 11 9 8 8 8 7 7 7 7 5 5 4 4 5 8 8 3
10 10 10 9 7 6 7 7 7 6 6 6 6 5 6 5 5 5 4 4 5 5 5 4 4 5 4 5 5 5 5 4 4 5 5 5 5 6 6 7 7 6 5 6 7 7 7 7 7 8 9 9 10 10 10 10 9 8 9 10 10 9 9 10 9 10 9 9 9 9 7 7 8 7 7 7 6 5 5 6 7 7 6 5 3
10 9 8 9 8 8 7 7 7 8 8 7 7 5 5 5 6 6 5 5 4 5 5 4 4 4 4 5 5 5 4 5 5 4 5 6 7 7 7 8 6 6 6 6 6 7 7 8 8 8 8 9 9 9 9 9 9 8 8 8 8 9 10 10 10 9 9 8 8 8 7 7 7 7 7 7 6 6 6 6 5 5 4 6 4
9 10 9 9 9 9 8 8 8 8 7 8 7 6 5 4 5 6 6 5 5 5 4 3 4 3 3 4 4 5 5 5 5 4 5 6 7 7 7 6 6 6 6 7 7 7 8 8 8 8 8 9 9 9 9 9 9 8 9 8 9 9 9 9 9 8 8 8 9 9 8 7 6 7 7 6 6 5 4 4 5 4 5 3 3
11 10 10 10 9 10 10 10 10 9 9 8 7 5 6 5 5 5 4 5 5 5 4 4 4 4 4 4 4 4 5 5 4 4 6 6 6 7 7 7 6 6 5 6 7 7 8 8 8 8 9 9 9 9 9 9 8 8 8 8 8 9 9 9 9 9 8 8 8 8 7 6 6 5 5 5 5 5 4 5 4 4 3 3 2
11 11 11 11 10 9 9 9 9 7 8 8 7 7 6 4 5 6 7 5 5 4 4 4 4 4 4 4 4 4 6 5 5 5 5 6 6 7 6 5 6 6 5 7 7 7 8 7 8 8 9 9 9 9 8 8 8 8 8 8 9 9 9 8 8 10 9 9 9 9 8 6 5 5 4 4 4 4 4 4 4 4 4 3 3
11 11 11 10 9 9 9 8 7 8 8 8 6 5 6 5 5 6 5 5 5 5 5 4 4 4 4 4 4 4 5 5 5 5 6 6 7 7 5 6 6 5 5 7 7 6 7 8 8 9 9 9 8 8 8 7 8 9 8 7 8 9 9 9 9 10 10 8 8 9 9 8 6 4 4 4 3 4 4 4 4 4 5 6 1
12 12 11 10 10 10 10 10 10 10 9 9 6 6 6 5 6 5 6 5 5 5 5 5 4 4 4 3 4 5 5 5 5 4 6 6 6 7 6 6 5 5 5 6 7 7 7 8 8 9 9 8 9 8 7 8 8 8 8 8 7 8 9 9 10 9 9 8 9 8 9 8 6 6 6 5 4 4 4 4 5 4 5 6 4
9 9 9 9 9 8 9 9 9 7 8 8 6 5 7 7 6 5 6 5 5 5 5 5 5 4 4 4 4 4 6 5 5 4 5 6 6 6 6 6 5 5 6 6 7 8 8 8 8 9 9 8 9 9 8 8 7 7 7 7 7 8 8 8 8 8 8 9 9 9 10 9 8 8 8 7 7 7 6 5 4 4 3 4 4
11 11 10 10 10 10 10 9 9 8 7 7 7 7 7 7 6 6 5 5 5 4 5 5 5 5 4 5 4 4 5 5 5 5 6 6 6 6 6 6 5 6 5 6 7 7 8 8 8 8 8 8 8 8 8 8 8 7 6 6 7 7 7 7 7 7 7 7 8 8 8 8 8 9 9 9 8 9 7 7 8 7 7 6 7
13 11 11 12 12 10 8 7 7 8 9 9 8 7 7 7 7 6 6 5 4 4 5 5 4 5 4 5 5 5 5 5 5 5 5 5 6 6 7 6 5 6 6 6 7 7 7 8 8 7 7 7 7 8 7 7 7 7 6 7 7 7 7 7 7 7 7 8 8 8 8 8 8 8 8 8 8 8 9 10 9 8 7 6 7
15 14 11 9 9 10 9 8 9 9 9 9 9 8 7 7 6 6 6 6 5 5 5 5 4 4 4 4 5 4 4 5 5 5 5 5 6 6 7 6 5 6 6 7 7 7 7 7 7 7 8 8 7 7 7 7 7 7 7 7 8 7 7 7 8 8 8 8 9 8 9 9 9 8 8 8 8 9 8 9 8 7 6 7 8
9 10 13 13 11 9 9 9 10 10 10 9 8 9 9 8 7 5 5 5 5 5 5 5 5 4 5 5 4 4 4 5 4 4 4 5 6 6 6 5 6 7 6 7 8 7 5 6 6 6 7 7 7 8 7 7 6 6 6 8 8 8 8 8 8 9 9 9 9 8 9 9 8 6 7 7 7 7 7 8 8 7 7 8 8
12 13 12 12 12 10 10 10 10 11 11 10 8 8 7 6 6 6 5 5 5 5 4 4 4 5 4 4 5 4 4 4 4 4 4 5 5 5 6 6 6 6 5 5 6 7 7 8 8 8 8 7 7 7 6 5 6 7 6 7 8 8 8 8 8 8 9 9 9 8 8 9 11 13 15 11 9 7 6 8 8 7 7 8 7
14 13 13 11 11 11 11 12 11 12 11 10 9 9 9 8 7 6 6 4 5 4 5 4 5 4 4 5 5 4 5 5 5 4 4 5 5 6 6 6 6 6 5 5 6 7 8 8 8 8 7 8 8 6 8 9 8 7 6 6 7 8 8 7 8 9 9 9 9 8 9 17 17 16 14 14 14 12 10 7 6 6 6 6 7
12 12 12 10 10 11 12 12 12 12 13 11 10 9 9 8 7 7 7 5 5 5 5 5 5 5 5 6 6 5 5 5 4 4 4 5 5 5 6 6 6 6 6 5 6 9 8 7 7 8 9 8 7 8 12 10 11 13 7 7 7 7 7 8 8 8 8 9 9 9 9 11 13 13 11 14 14 13 14 13 12 11 9 6 5
13 13 12 11 11 13 14 14 13 13 12 12 11 10 9 9 7 7 7 5 5 5 5 5 5 5 6 6 5 5 5 4 5 4 5 4 5 5 6 5 6 7 5 4 7 7 7 6 6 7 9 8 8 12 13 11 10 12 10 7 6 7 7 7 7 7 7 7 8 8 7 7 8 11 9 9 11 13 14 13 13 13 13 13 9
14 14 14 13 14 15 15 13 12 13 13 12 13 12 10 9 8 7 7 6 6 6 6 5 5 6 5 6 5 6 5 5 4 4 4 5 5 5 5 6 6 4 4 6 5 6 7 6 7 8 8 8 8 14 12 12 10 9 10 8 6 6 7 7 7 7 8 7 7 7 7 8 8 14 10 8 7 8 11 15 15 14 15 16 15
14 15 15 13 11 12 13 14 14 13 13 13 13 13 11 9 9 8 9 7 8 6 6 5 5 6 6 6 6 5 5 4 4 4 4 5 5 5 4 4 4 5 5 5 5 6 6 7 7 7 7 9 10 12 13 13 12 11 9 7 5 6 6 6 7 7 7 8 8 8 8 8 8 9 9 9 7 7 7 9 9 9 9 12 15
14 13 12 12 13 13 11 11 12 13 12 12 10 10 10 8 9 9 8 9 7 7 6 6 5 5 6 6 6 5 5 4 4 4 4 4 4 4 4 4 5 5 5 5 5 5 6 6 7 7 8 9 9 15 15 14 13 12 11 7 5 5 6 6 7 7 7 7 7 7 7 7 8 8 9 9 7 7 6 8 9 8 8 8 8
14 16 14 14 15 16 16 14 12 13 12 12 12 11 11 10 8 9 8 9 8 7 7 6 6 5 6 6 6 5 4 4 4 4 4 4 4 4 4 4 4 4 4 4 4 4 6 6 6 6 8 9 9 16 15 14 13 12 10 5 5 6 6 7 8 7 7 7 7 8 7 8 8 9 12 14 10 5 8 9 9 8 8 8 8
15 16 16 15 13 13 13 13 12 13 14 12 12 11 11 10 9 8 9 9 8 8 7 7 6 5 6 6 6 6 5 4 4 4 4 4 4 3 3 3 5 4 5 5 4 4 4 5 6 7 8 8 9 13 15 15 14 12 8 6 5 6 7 7 8 7 7 7 8 9 8 8 9 10 13 14 13 10 9 9 7 7 7 9 9
14 8 7 9 10 10 11 14 14 13 13 12 12 12 12 10 9 8 9 9 9 8 7 7 6 6 6 6 6 6 5 4 4 4 4 4 4 3 2 3 6 5 5 4 4 5 5 5 6 7 6 6 7 12 16 15 14 13 7 5 5 6 7 7 7 7 7 7 11 19 13 9 9 10 15 16 14 10 9 7 6 7 10 10 9
13 14 14 14 13 14 14 13 15 14 12 13 13 13 12 10 9 9 9 9 8 8 7 8 7 6 6 6 6 5 5 5 4 4 5 5 5 4 3 3 4 5 5 4 4 5 5 6 6 6 11 9 7 9 14 14 14 13 8 5 6 5 7 7 6 7 6 7 7 10 16 13 11 12 17 16 16 11 9 8 6 7 10 9 7
10 10 15 15 14 15 14 15 16 15 14 14 13 12 11 10 9 9 9 9 8 8 7 7 7 7 6 6 5 5 5 5 4 4 4 5 4 4 4 4 4 6 6 4 4 5 6 5 5 6 6 6 7 7 10 15 13 14 12 6 5 7 7 6 6 6 7 7 7 8 11 15 16 17 17 17 16 15 10 8 6 8 8 7 6
12 12 14 14 15 17 17 17 14 15 13 13 12 12 10 9 9 9 9 8 8 8 8 8 8 7 6 6 5 5 5 4 4 4 4 4 4 5 5 5 6 6 6 5 4 4 6 5 5 5 6 6 6 6 8 13 14 14 14 9 5 6 4 5 6 7 7 7 7 8 7 13 16 17 17 17 17 16 12 8 8 7 4 4 5
9 15 15 13 12 12 12 12 13 15 14 12 12 12 10 10 9 10 8 7 9 9 9 9 9 8 7 6 5 4 4 4 3 4 4 3 2 4 4 6 6 6 6 5 4 4 5 5 5 5 5 6 7 11 6 10 13 13 13 12 7 5 4 4 7 7 7 7 7 6 6 10 15 16 17 17 17 16 16 10 11 12 13 13 7
13 9 11 15 13 14 15 14 13 13 12 11 13 12 10 9 10 9 8 9 9 9 9 9 8 8 6 6 5 5 4 3 4 4 5 4 2 3 4 5 7 6 6 5 4 4 5 5 5 6 5 5 6 6 11 8 11 13 13 13 12 8 9 6 7 7 6 7 6 7 8 14 14 15 16 17 17 17 13 12 15 14 13 13 8
14 17 16 14 13 12 13 12 12 12 11 11 13 12 10 10 10 8 9 9 10 9 9 9 8 7 6 6 5 4 4 3 3 3 5 5 4 4 4 4 5 6 6 5 4 4 5 5 6 6 6 5 5 5 7 10 9 12 13 13 13 12 10 6 7 7 6 7 7 7 9 14 14 15 15 16 17 16 13 16 15 15 13 11 7
15 13 13 15 18 16 14 12 11 11 10 11 10 13 12 12 8 10 11 11 10 10 9 9 8 7 7 5 4 4 3 3 3 5 5 5 4 5 6 3 5 5 6 6 3 4 5 5 5 5 5 5 6 5 6 8 12 12 13 13 12 13 12 11 9 7 6 7 11 14 15 14 14 14 15 14 13 15 17 16 16 15 12 8 9
10 11 12 12 12 14 15 15 10 10 11 10 9 13 15 11 10 10 11 11 11 10 9 9 8 7 6 5 5 5 5 5 5 5 5 3 5 6 6 4 6 6 5 6 4 4 5 4 5 4 5 4 5 5 6 7 7 9 9 12 12 13 12 12 11 10 12 15 15 14 14 14 14 13 11 9 8 10 15 16 17 14 9 9 8
14 13 13 13 14 14 14 14 13 9 10 9 10 8 11 12 12 11 11 11 11 11 9 8 8 7 5 5 7 6 6 5 5 5 5 5 4 6 6 5 6 6 5 4 4 4 4 4 5 3 3 4 6 6 6 7 7 7 7 7 7 8 10 10 8 8 8 8 11 11 9 11 10 13 13 12 11 12 12 11 9 9 9 9 8
14 14 15 15 15 16 15 14 13 11 10 10 10 9 11 12 11 11 11 11 11 10 10 9 9 7 6 6 7 8 8 6 4 4 5 5 4 3 6 5 6 7 7 5 5 4 5 5 6 4 4 6 6 7 7 7 7 6 6 5 5 6 6 6 7 7 6 7 7 8 10 9 9 9 10 9 9 8 8 9 9 8 8 8 10
11 12 16 17 15 15 16 15 13 11 11 10 10 10 12 13 12 11 12 12 11 10 10 9 8 7 7 6 7 6 6 7 6 6 6 4 3 2 5 4 0 2 3 7 7 4 3 3 5 4 6 6 5 6 4 4 3 4 3 6 6 6 6 6 7 7 5 7 7 9 9 9 9 9 8 9 8 8 8 8 10 9 9 9 9
14 14 14 14 15 16 15 14 12 11 11 11 11 11 11 12 12 11 12 12 11 10 9 9 8 7 7 7 7 6 6 7 7 7 7 6 8 9 5 2 3 5 7 4 4 4 6 5 5 1 1 5 5 0 4 5 4 7 9 10 10 11 10 8 9 10 7 8 8 8 8 8 8 8 8 8 8 8 8 9 8 8 9 9 8
11 11 11 13 12 13 13 13 12 11 12 12 12 12 12 11 12 12 12 12 12 10 9 8 8 8 9 8 7 7 6 6 6 7 7 7 6 7 10 10 7 6 8 10 10 10 8 5 4 3 0 0 0 3 5 8 10 10 12 13 14 13 12 11 8 6 9 9 8 9 7 8 7 7 8 7 7 7 7 7 7 7 8 8 8
Wind_Direction
175 157 159 158 161 149 139 106 87 60 48 48 41 27 37 47 48 36 21 16 15 12 3 11 11 358 3 13 23 18 23 34 34 17 28 20 18 11 1 2 358 359 0 351 358 353 350 338 344 344 341 338 331 331 320 335 345 344 340 338 335 332 330 331 336 335 330 328 329 318 327 329 360 358 352 347 360 356 349 346 341 334 324 319 323
127 130 141 132 112 107 110 103 94 72 41 55 52 32 35 41 47 40 23 13 8 11 15 12 14 15 295 340 349 36 29 30 26 17 27 21 13 5 0 1 3 1 355 349 348 355 350 349 346 341 338 334 332 325 330 344 344 343 342 331 321 322 317 328 327 343 3 353 339 343 344 329 12 354 354 343 356 359 355 351 342 344 348 2 22
168 161 147 136 126 110 105 100 84 103 83 62 61 45 37 45 41 41 23 15 3 6 23 7 355 9 31 4 29 33 39 44 43 21 23 20 10 359 359 360 3 359 353 346 351 347 351 351 346 337 335 331 329 331 336 346 346 343 343 341 336 312 312 315 338 357 353 343 313 307 353 352 350 348 351 347 354 357 358 1 1 2 347 19 28
174 174 165 182 146 149 114 92 98 83 75 55 56 56 49 50 47 40 20 13 7 8 15 4 13 21 23 31 29 56 43 30 34 19 14 11 3 355 355 354 354 350 350 351 349 348 352 349 344 343 334 331 330 340 346 348 347 345 345 342 339 334 339 327 341 347 1 351 10 5 303 321 349 3 339 321 345 356 10 8 4 3 345 33 30
172 177 169 192 154 160 152 155 104 88 90 90 76 68 66 63 55 43 25 16 12 13 11 8 16 18 15 19 23 25 24 29 26 19 12 4 1 355 349 352 349 346 347 351 353 349 346 349 351 343 337 336 340 352 349 352 352 346 345 342 339 337 326 329 324 0 358 22 19 350 347 7 9 303 324 291 351 10 18 12 14 4 9 40 30
170 171 179 183 148 139 127 129 99 93 95 103 92 80 75 67 56 45 29 21 19 17 14 23 22 32 29 35 32 32 32 18 27 22 11 7 356 336 348 352 348 348 349 350 353 350 347 350 351 348 342 342 355 355 354 356 353 348 346 342 338 338 335 320 327 8 359 1 20 29 318 315 319 308 314 344 340 30 29 21 26 25 40 39 38
155 164 172 145 148 132 143 132 133 113 119 113 82 78 76 74 62 52 45 31 23 24 22 23 25 25 37 47 54 50 41 14 12 3 6 352 354 356 344 344 350 350 348 353 353 350 348 352 354 351 349 355 360 1 2 357 351 346 345 347 344 342 346 340 348 3 348 343 357 358 344 323 289 304 354 297 356 13 23 24 29 35 41 37 35
164 177 175 156 154 150 149 165 137 130 126 98 89 80 79 74 66 57 43 44 29 32 28 23 37 30 37 38 46 48 40 23 9 360 353 353 359 352 348 347 346 350 349 352 353 352 354 354 356 3 7 3 5 4 3 356 350 350 353 354 355 359 359 10 357 22 26 329 344 352 356 341 332 283 334 21 14 42 9 14 33 34 43 38 35
169 168 166 160 158 162 156 153 157 111 112 107 106 102 87 76 71 61 57 47 37 32 35 24 32 43 43 45 43 28 32 15 8 11 4 353 3 350 354 345 349 349 354 355 353 355 359 353 4 14 11 7 9 2 1 357 355 354 358 360 4 3 11 20 28 33 27 357 336 346 345 10 341 37 45 34 31 55 37 20 23 30 49 36 34
170 163 161 156 156 160 164 156 109 101 111 107 105 96 84 79 69 68 57 53 44 39 34 29 29 35 41 39 45 25 21 14 21 15 9 0 4 353 347 349 350 351 351 355 359 0 358 1 15 15 12 9 8 2 360 357 356 357 359 4 9 10 10 17 28 34 42 320 322 313 354 352 8 6 25 31 54 52 61 29 27 31 46 33 28
164 158 151 146 156 154 156 126 118 113 109 109 105 102 92 82 74 65 65 64 52 44 41 29 28 32 39 39 40 27 16 31 25 17 8 5 3 351 352 344 350 352 348 354 1 1 6 13 17 14 15 9 3 359 1 358 355 357 360 10 14 15 13 18 21 20 8 358 335 347 345 344 7 52 27 22 51 50 58 42 45 40 45 49 25
153 148 146 144 150 156 134 118 123 125 113 103 110 106 99 92 76 70 58 69 61 51 43 30 29 27 30 30 31 31 34 32 33 23 12 9 356 354 344 349 355 349 354 359 7 9 17 14 12 17 15 6 1 355 359 357 356 357 6 15 16 16 18 24 24 22 18 13 18 18 25 27 47 47 34 30 48 55 69 57 45 33 53 56 23
153 154 152 157 158 155 148 148 135 128 123 119 119 112 105 95 86 80 68 72 67 62 54 38 32 26 26 26 23 29 33 29 22 23 16 14 354 358 354 352 349 360 1 8 9 13 14 13 13 15 10 3 358 1 1 356 358 0 7 14 17 20 18 20 27 28 26 29 34 41 48 46 42 35 37 42 43 54 58 77 54 57 76 62 32
161 158 160 161 161 161 162 156 136 129 127 126 121 113 110 104 104 95 90 86 78 60 57 49 35 29 29 30 27 32 31 31 19 26 13 10 3 358 352 354 357 3 358 12 6 12 15 9 12 16 13 6 5 4 4 0 357 1 7 15 19 19 23 25 28 31 32 34 33 37 35 36 35 29 34 37 40 48 53 63 81 64 63 73 31
160 162 164 164 166 164 167 142 137 134 128 124 119 118 112 106 110 106 82 72 81 72 59 54 41 32 31 31 32 29 32 24 23 26 18 8 359 357 353 358 8 1 9 8 13 20 16 11 16 20 13 8 8 8 4 3 359 0 12 15 21 21 26 30 34 36 38 36 37 38 36 30 25 24 32 40 37 38 36 24 68 95 68 48 67
165 162 162 166 166 167 145 137 132 130 130 131 120 112 100 104 94 93 99 82 80 77 63 61 44 42 35 35 26 32 28 25 22 15 8 14 3 4 352 1 6 8 10 23 21 22 15 13 15 20 13 12 10 10 8 6 360 6 12 16 20 17 25 33 33 39 42 38 36 31 34 29 25 24 23 27 35 37 47 25 27 50 96 90 21
168 168 166 164 162 160 143 138 132 130 127 127 128 123 117 109 95 90 86 74 74 79 76 65 54 46 34 33 29 30 31 29 20 19 11 6 12 1 6 6 13 16 17 29 25 22 17 17 18 19 16 10 12 10 9 7 4 9 15 18 19 12 26 28 34 39 42 41 36 32 33 27 25 25 30 39 43 36 25 29 28 39 7 72 41
169 162 159 162 161 153 144 142 139 134 131 122 122 126 123 120 113 103 96 91 81 81 73 71 64 50 39 30 24 29 33 28 20 20 9 15 6 4 7 13 11 11 29 31 29 24 18 16 20 21 15 15 14 11 9 7 8 12 15 22 19 18 26 28 27 32 37 41 41 36 27 31 22 27 33 38 41 36 36 26 20 22 28 49 39
159 162 162 164 160 156 151 145 142 139 132 128 128 125 123 123 121 117 117 116 107 95 88 72 73 67 53 38 27 21 25 31 25 23 24 20 7 2 9 12 15 17 29 33 29 24 21 17 20 21 19 14 14 16 9 11 10 16 14 20 18 21 28 29 20 22 29 34 37 38 30 28 19 26 25 25 29 27 8 2 9 11 16 43 58
166 166 168 165 163 159 153 149 147 145 137 134 135 136 141 141 120 117 108 98 89 85 85 83 72 68 49 37 25 25 30 38 32 33 28 20 7 10 11 17 18 23 28 37 34 28 23 21 18 22 20 16 16 14 10 9 13 18 15 21 17 23 29 27 21 21 22 24 28 32 28 24 11 18 18 7 355 351 350 349 347 350 1 5 41
171 168 166 164 161 155 151 150 148 144 140 140 146 154 152 134 126 125 122 113 104 103 92 93 83 65 61 50 32 28 33 38 39 29 35 19 15 16 17 23 33 26 25 36 33 28 26 24 22 23 24 19 15 13 9 7 16 15 14 22 23 25 29 23 22 26 24 20 20 26 21 10 4 15 5 355 353 335 332 329 318 332 348 345 18
168 167 163 162 156 153 151 150 144 142 143 147 158 147 133 143 140 131 124 123 117 104 102 94 85 77 70 52 36 35 45 48 45 28 29 21 18 19 20 37 40 26 31 33 33 28 27 25 27 24 22 20 16 16 11 11 18 15 11 17 22 26 27 25 25 26 20 19 20 20 14 6 358 0 356 344 328 319 314 315 308 309 305 304 275
169 165 165 161 159 159 159 156 156 157 155 151 158 146 144 152 146 143 133 140 128 119 109 101 89 83 67 54 46 43 52 52 50 34 32 24 19 20 26 40 39 30 30 35 30 28 26 27 30 27 22 20 16 15 13 15 19 19 14 15 20 29 30 26 26 21 16 11 19 20 17 7 358 356 352 341 328 307 295 294 297 291 292 292 287
158 158 157 157 155 156 156 159 158 153 146 153 152 136 141 152 150 141 141 141 126 120 109 99 94 81 74 62 52 53 61 58 53 37 35 27 24 22 25 39 39 37 33 30 34 27 26 28 30 26 23 18 16 13 13 15 16 16 19 19 19 28 33 33 29 20 14 14 13 18 14 7 3 8 3 354 348 342 338 336 346 1 352 347 330
161 163 160 156 159 165 168 165 159 149 140 140 138 137 140 142 139 141 144 136 126 122 107 104 103 90 64 66 58 62 70 64 58 42 35 32 27 25 27 36 39 40 34 33 32 30 29 27 28 24 19 18 15 12 13 11 12 13 19 24 20 21 24 26 27 24 18 13 15 21 11 10 9 14 4 0 349 0 5 24 32 25 31 24 32
163 161 162 168 169 166 163 162 150 142 141 138 139 143 138 131 132 135 130 125 123 117 117 110 105 94 76 69 73 72 73 74 67 55 43 37 34 31 31 33 39 42 38 36 34 30 31 26 26 22 22 19 16 14 13 11 10 12 20 27 26 24 22 21 19 17 18 14 14 12 12 13 16 18 4 3 4 13 19 28 27 24 22 29 38
169 168 165 158 165 170 164 155 147 143 140 144 144 140 131 126 127 127 128 129 134 123 118 115 112 104 89 82 83 88 88 82 77 64 49 41 40 38 37 37 40 50 43 37 31 34 28 29 23 21 21 17 14 14 13 11 12 17 26 31 29 27 24 23 20 17 16 17 14 11 12 12 12 11 12 10 6 17 20 24 17 15 18 34 35
159 160 166 170 168 163 157 151 146 142 140 141 143 140 139 138 139 136 129 127 130 122 124 122 116 104 101 94 92 95 92 90 81 71 58 49 46 44 41 39 48 48 43 39 34 30 27 32 24 24 19 19 18 16 11 9 17 24 34 36 34 32 27 24 20 19 18 17 13 11 12 9 5 6 16 12 10 16 16 24 6 14 20 30 36
169 171 169 167 167 165 156 153 149 143 142 142 139 136 133 134 135 137 134 138 138 128 126 123 114 110 108 100 88 84 86 81 76 69 65 56 50 49 45 45 46 44 41 36 35 33 31 29 26 25 23 22 24 16 7 1 22 35 38 44 40 37 33 27 22 19 16 13 13 10 6 4 3 8 12 12 14 18 32 27 8 6 18 28 31
173 173 173 170 166 160 158 154 152 149 146 145 143 143 144 144 147 141 138 151 129 129 125 120 115 117 107 92 88 86 84 80 73 71 70 64 58 49 50 48 44 43 40 34 35 36 37 30 27 23 26 27 23 18 8 20 38 51 43 48 49 44 39 35 31 24 16 12 10 8 1 6 8 8 8 8 14 25 34 45 32 20 14 24 33
171 169 172 169 166 160 158 158 158 154 153 149 149 148 146 146 149 144 147 156 130 129 123 122 121 116 103 96 92 88 78 76 84 79 74 74 66 59 53 49 45 45 40 31 35 38 33 27 29 28 28 28 26 15 20 40 42 49 50 48 50 47 43 41 38 34 23 11 8 8 7 3 7 8 1 360 9 23 30 30 32 38 39 34 23
173 173 170 168 167 164 166 166 161 158 154 150 149 150 148 154 154 149 149 145 131 126 123 126 126 113 104 101 101 93 82 75 73 69 82 87 82 74 63 54 52 46 38 36 43 39 36 29 29 35 35 27 27 14 35 45 46 48 49 48 46 48 43 41 38 37 31 23 12 9 7 7 8 8 7 359 1 14 25 30 34 34 32 34 43
172 175 178 175 173 172 169 164 159 160 157 157 151 150 157 158 154 150 139 136 129 129 125 125 126 113 112 109 102 98 95 85 75 75 83 88 91 86 76 65 58 54 49 46 39 40 37 30 36 39 35 26 30 14 31 50 50 46 44 45 42 41 44 38 34 33 33 29 21 17 12 14 5 8 9 0 2 7 18 30 35 33 33 33 30
179 179 179 176 169 170 170 166 162 160 155 153 155 153 156 155 146 141 136 133 126 129 129 132 127 119 117 114 107 101 99 95 85 77 84 93 94 98 102 91 80 60 57 50 41 45 38 37 36 40 41 34 32 8 31 43 49 41 31 38 38 35 38 36 30 25 25 29 24 20 16 13 6 8 8 4 359 12 21 32 31 31 29 26 29
180 181 179 173 172 165 158 155 157 153 147 146 148 147 143 141 144 140 137 130 130 131 126 130 127 128 119 116 113 109 102 90 82 81 86 102 109 107 99 98 87 79 69 60 47 46 42 39 36 35 46 42 25 19 31 38 44 44 28 31 31 33 34 35 30 23 20 24 27 24 20 15 10 14 10 1 12 10 28 40 38 32 31 31 31
183 184 180 171 171 168 165 160 150 144 149 150 150 149 144 149 146 139 135 133 134 130 132 132 133 132 125 123 119 116 107 94 77 72 84 95 113 122 122 115 96 78 63 60 48 53 47 41 36 38 48 42 27 23 29 35 38 41 33 28 30 34 33 32 31 21 18 17 30 30 24 21 17 20 5 11 18 24 42 41 39 31 31 30 23
185 182 182 175 165 157 153 146 148 149 148 150 148 147 144 143 142 141 134 135 132 132 141 142 138 133 128 128 123 119 115 99 86 85 93 109 115 112 113 106 97 96 81 64 61 53 45 47 44 42 44 42 34 22 27 31 33 30 31 24 28 32 34 33 27 19 16 19 33 34 33 26 25 24 10 21 21 42 47 39 35 36 37 35 16
182 167 134 143 148 140 143 145 146 148 147 146 148 144 144 145 144 140 135 138 137 143 147 141 141 137 133 133 129 122 120 111 95 100 106 112 117 112 122 117 119 115 95 90 78 61 43 42 45 45 41 44 33 23 27 28 28 25 27 26 17 35 38 33 22 22 19 23 30 40 40 34 32 24 19 26 25 40 48 34 33 37 44 33 9
165 157 153 154 155 149 145 142 143 145 151 148 146 144 144 147 146 143 140 141 144 146 146 145 144 137 132 131 128 123 123 122 117 118 115 117 124 135 134 106 108 107 114 109 82 71 57 43 39 37 40 42 29 21 24 25 28 23 23 22 19 31 46 30 23 24 23 29 24 32 37 38 40 31 30 28 28 37 47 34 15 40 47 34 353
166 159 155 149 139 136 144 149 151 152 151 148 146 145 146 146 148 142 144 148 151 151 146 135 133 131 129 128 129 127 129 126 133 127 120 128 135 118 120 109 93 101 108 97 85 76 65 46 29 30 28 28 31 17 22 22 26 27 24 31 23 41 38 29 25 36 33 26 27 27 31 32 36 37 35 32 30 32 46 33 25 42 41 23 331
155 148 143 147 154 154 154 153 149 148 150 149 146 143 146 148 146 146 153 155 147 135 131 131 129 126 126 127 128 133 134 139 142 144 143 134 129 125 117 106 102 94 94 85 81 74 66 49 33 31 30 18 24 23 13 23 23 25 25 28 31 36 28 38 42 44 39 35 25 23 24 26 33 37 38 34 33 31 35 40 33 39 16 326 331
133 144 145 143 144 139 137 141 147 149 150 149 146 145 147 149 147 154 159 143 135 134 130 128 128 129 131 129 132 137 137 142 142 125 122 132 129 114 118 115 112 110 103 99 94 81 73 56 37 29 28 20 12 27 17 19 22 23 26 29 35 26 17 49 50 48 40 39 30 22 28 22 30 37 39 37 33 32 31 37 23 21 15 14 21
126 136 145 142 142 147 149 147 151 150 151 151 147 146 150 150 154 161 146 140 137 134 132 130 129 129 133 137 142 143 143 145 146 138 138 143 137 104 94 110 117 108 105 101 91 87 78 66 47 29 22 17 9 6 16 15 17 23 26 31 37 39 33 53 63 56 47 42 34 32 27 28 31 33 38 39 36 32 35 25 23 23 19 13 20
149 150 150 144 138 140 143 147 152 152 151 152 149 148 153 154 161 151 140 138 135 135 132 130 132 133 134 141 149 150 149 154 162 109 80 93 94 93 79 93 115 116 113 100 90 89 81 71 64 39 22 11 3 7 2 12 16 23 28 33 37 42 47 58 60 63 50 48 44 38 36 32 31 31 33 37 37 35 33 26 25 24 23 20 27
149 151 149 148 148 148 145 148 154 153 153 154 154 149 153 155 160 147 145 141 138 136 132 134 137 138 141 151 150 139 106 65 56 104 110 103 93 103 90 73 107 104 108 106 100 93 89 91 74 61 29 16 2 3 10 8 13 20 28 30 36 44 49 55 57 47 51 51 49 45 40 37 33 32 31 34 33 28 26 28 26 24 27 30 26
125 134 145 142 139 141 146 149 155 156 153 155 155 152 155 160 153 150 145 142 139 137 137 140 142 141 151 151 109 73 74 82 76 72 88 91 111 108 107 99 101 103 110 112 115 101 96 89 86 66 54 26 13 19 18 11 13 14 21 21 33 43 50 55 59 53 50 48 45 42 39 35 35 33 33 33 33 25 24 27 25 24 26 28 27
152 149 138 140 145 148 153 153 155 162 154 153 152 156 148 147 152 148 144 143 141 140 141 142 144 149 147 117 113 110 91 76 75 72 69 70 69 98 103 101 108 115 110 115 110 109 101 95 87 80 63 48 36 30 21 16 12 15 13 6 23 35 41 49 45 39 38 42 43 44 42 41 45 40 42 40 38 29 28 23 22 22 23 21 22
151 153 151 149 154 155 157 157 159 163 155 151 150 149 151 149 146 147 145 142 143 146 147 150 150 150 134 129 125 122 112 91 67 74 82 75 60 83 104 112 135 140 133 129 128 124 125 122 117 102 79 57 43 36 27 13 357 5 6 16 31 45 48 53 55 45 45 44 47 40 39 32 32 33 31 31 28 30 30 27 24 22 21 19 24
153 160 159 161 161 160 161 160 161 160 154 151 151 150 153 151 150 150 148 145 148 148 146 148 148 136 135 135 130 128 123 116 104 83 65 57 62 66 106 108 213 214 181 150 143 137 136 146 128 118 92 74 54 40 4 327 321 341 22 45 47 52 56 55 55 57 56 48 47 46 40 36 34 35 33 32 25 25 27 26 26 23 20 20 23
165 163 165 161 162 159 160 161 160 159 155 153 153 155 157 154 152 154 150 148 149 148 149 153 150 142 141 135 132 129 129 123 120 114 102 67 38 44 26 89 89 62 90 96 136 149 162 149 119 131 123 110 109 174 298 337 31 62 68 75 77 70 64 62 54 55 62 64 50 56 42 40 37 36 38 32 27 24 25 25 23 18 21 24 22
159 154 163 164 165 162 157 158 161 161 159 157 157 159 159 159 157 157 154 151 150 152 156 157 154 154 153 147 140 133 130 120 122 120 112 109 88 37 34 37 58 83 89 91 93 111 131 138 130 119 10 167 29 356 14 32 43 53 64 69 68 65 59 53 41 64 54 53 49 51 40 38 35 40 42 33 26 29 27 27 23 21 25 21 19